Temperature
20 20 20 20 18 17 18 18 19 19 19 18 18 18 17 17 17 17 17 17 17 17 17 17 17 17 17 17 17 17 17 17 17 17 17 17 17 17 17 17 17 17 17 17 17 17 17 17 18
20 20 20 20 17 17 18 18 19 19 19 19 18 18 17 17 17 17 17 17 17 17 17 17 17 17 17 17 17 17 17 17 17 17 17 17 17 17 17 17 17 17 17 17 17 17 17 17 17
20 20 20 16 17 17 19 19 18 19 19 19 18 17 17 17 17 17 17 17 17 17 17 17 17 17 17 17 17 17 17 17 17 17 17 17 17 17 17 17 17 17 17 17 17 17 17 17 17
20 20 20 17 18 18 18 19 19 19 19 19 18 17 17 17 17 17 17 17 17 17 17 17 17 17 17 17 17 17 17 17 17 17 17 17 17 17 17 17 17 17 17 17 17 17 17 17 17
21 20 17 17 18 18 18 19 19 19 18 18 18 17 17 17 17 17 17 17 17 17 17 17 17 17 17 17 17 17 17 17 17 17 17 17 17 17 17 17 17 17 17 17 17 17 17 17 17
21 18 17 17 18 18 19 19 19 18 18 18 18 17 17 17 17 17 17 17 17 17 17 17 17 17 17 17 17 17 17 17 17 17 17 17 17 17 17 17 16 17 16 16 17 17 17 17 17
19 16 17 18 18 19 19 19 19 18 18 18 18 17 17 17 17 17 17 17 17 17 17 17 17 17 17 17 17 17 17 17 17 17 17 17 17 17 17 16 16 16 16 16 16 17 17 17 17
20 16 17 17 18 19 19 19 19 19 18 18 18 17 17 17 17 17 17 17 17 17 17 17 17 17 17 17 17 17 17 17 17 17 17 16 16 16 16 16 16 16 16 16 16 16 17 17 17
20 16 17 18 18 19 19 19 19 19 19 18 18 18 18 18 17 17 17 17 17 17 17 17 17 17 17 17 17 17 17 17 17 16 16 16 16 16 16 16 16 16 16 16 16 16 16 16 16
20 17 19 19 19 19 19 19 19 19 18 18 18 18 18 18 18 18 17 17 17 17 17 17 17 17 17 17 17 17 17 17 16 16 16 16 16 16 16 16 16 16 16 16 16 16 16 16 16
19 18 19 19 20 20 19 19 19 19 18 18 18 18 18 18 18 18 18 17 17 17 17 17 17 17 17 17 17 17 17 17 16 16 16 16 16 16 16 16 16 16 16 16 16 16 16 16 16
19 19 20 20 20 20 20 19 19 19 19 20 19 19 18 18 18 18 18 18 17 17 17 17 17 17 17 17 17 17 17 16 16 16 16 16 16 16 16 16 16 16 16 16 16 16 16 16 16
19 19 20 20 21 20 20 19 19 19 19 19 19 19 18 18 18 18 18 18 17 18 17 17 17 17 17 17 17 17 17 16 16 16 16 16 16 16 16 16 16 16 16 16 16 16 16 16 16
20 20 20 20 20 20 19 19 19 19 19 19 19 18 18 18 18 18 18 18 18 18 17 17 17 17 17 17 17 17 16 16 16 16 16 16 16 16 16 16 16 16 16 16 16 16 16 16 16
20 19 19 20 20 20 20 19 18 19 19 19 18 18 18 18 18 18 18 18 18 18 17 17 17 17 17 17 17 16 16 16 16 16 16 16 16 16 16 16 16 16 16 16 16 16 16 16 16
19 18 18 19 19 20 20 18 18 19 19 18 18 18 18 18 18 18 18 18 18 18 18 17 17 17 17 17 16 16 16 16 16 16 16 16 16 16 16 16 16 16 16 16 16 16 16 16 15
18 17 18 19 19 19 19 18 18 19 18 18 18 18 18 18 18 18 18 18 18 18 18 17 17 17 17 16 16 16 16 16 16 16 16 16 16 16 16 16 16 16 16 16 16 16 16 16 15
18 18 18 18 19 19 18 18 18 18 18 18 18 18 18 18 19 19 18 18 18 18 18 17 17 17 17 16 16 16 16 16 16 16 16 16 16 16 16 16 16 15 15 15 15 15 15 15 15
18 18 18 18 19 19 18 18 17 18 17 17 17 18 18 18 19 19 18 18 18 18 18 17 17 17 17 16 16 16 16 16 16 16 16 16 16 16 16 16 16 15 15 15 15 15 15 15 15
18 18 18 18 19 19 18 17 17 17 17 17 17 18 18 19 19 18 18 18 18 18 18 17 17 17 17 16 16 16 16 16 16 16 15 16 16 16 15 15 15 15 15 15 15 15 15 15 15
18 18 18 19 18 18 18 17 17 17 17 17 18 18 19 19 19 19 18 18 18 18 18 17 17 17 17 16 16 16 16 16 16 15 15 15 15 15 15 15 15 15 15 15 15 15 15 15 15
18 19 19 19 17 16 18 16 16 16 16 16 17 18 18 19 19 19 19 18 18 18 18 17 17 17 17 16 16 16 16 16 16 15 15 15 15 15 15 15 15 15 15 15 15 15 15 15 15
19 19 18 18 17 16 16 16 15 15 16 16 16 18 18 19 19 19 19 19 18 18 18 17 17 17 17 16 16 16 16 16 16 15 15 15 15 15 15 15 15 15 15 15 15 15 15 15 15
18 17 17 15 15 16 16 16 15 15 16 16 17 17 18 18 19 19 19 19 18 18 18 17 17 17 17 16 16 16 16 16 16 15 15 15 15 15 15 15 15 15 15 15 15 15 15 15 14
17 16 16 16 15 15 16 15 15 16 16 16 17 17 18 18 18 18 18 18 18 18 18 17 17 17 17 16 16 16 16 16 16 15 15 15 15 15 15 15 15 15 14 14 14 14 14 14 14
17 16 16 16 15 15 15 15 16 17 17 17 17 18 18 18 18 18 18 18 18 18 18 17 17 17 17 16 16 16 16 16 16 15 15 15 15 15 15 15 14 14 14 14 14 14 14 14 14
17 16 16 15 15 15 15 15 16 17 17 17 17 17 17 18 18 18 18 18 18 18 18 18 17 17 17 16 16 16 16 16 16 15 15 15 15 15 15 14 14 14 14 14 14 14 14 14 14
17 15 14 15 15 15 15 15 15 17 17 16 16 16 17 18 18 18 18 18 18 18 18 17 17 17 17 17 16 16 16 16 16 15 15 15 15 15 15 14 14 14 14 14 14 14 14 14 14
16 16 14 13 14 14 15 15 16 16 16 16 16 17 17 18 18 18 18 18 18 18 18 17 17 17 17 17 16 16 16 16 16 15 15 15 15 15 14 14 14 14 14 14 14 14 14 14 14
17 16 14 15 14 13 14 14 16 15 15 16 16 17 17 18 18 18 18 18 18 17 17 17 17 17 17 17 16 16 16 16 16 16 15 15 15 15 15 14 14 14 14 14 14 14 14 14 14
Wind_Speed
4 3 3 4 6 6 4 3 2 3 3 3 5 6 6 5 3 3 1 0 1 1 3 3 7 8 9 9 9 10 10 11 11 11 11 11 11 10 10 11 11 10 11 11 11 11 11 11 11
2 2 4 5 5 4 3 2 3 3 3 4 5 6 6 5 3 3 0 0 2 2 3 4 7 8 9 9 9 9 10 10 11 11 11 11 11 10 10 10 11 11 10 10 11 11 11 11 11
2 3 4 5 4 3 2 1 3 4 4 3 4 5 4 3 2 2 2 2 2 2 3 5 7 8 8 9 9 9 9 9 10 10 10 10 10 10 10 10 10 11 11 10 11 11 11 11 11
3 5 5 6 5 1 1 2 3 4 4 5 4 5 3 3 1 3 3 3 3 2 3 4 7 7 7 8 8 8 9 9 9 9 9 10 10 10 10 10 10 10 11 11 11 11 11 10 10
4 5 6 5 3 2 2 1 1 3 3 4 4 5 3 4 4 5 4 4 3 2 3 4 6 7 7 7 7 7 8 9 9 9 9 9 9 9 9 9 9 10 10 11 11 11 11 11 11
5 5 5 3 2 3 2 1 3 4 4 4 4 4 2 2 4 4 4 3 3 2 3 4 6 6 7 7 7 7 7 8 8 8 8 8 9 9 9 9 9 9 10 11 11 11 12 12 12
4 5 4 3 2 2 1 2 3 4 4 2 3 4 2 1 2 3 4 3 2 3 3 4 5 6 7 7 7 7 7 7 7 7 8 8 9 9 9 9 9 9 10 11 11 12 12 12 12
5 5 4 2 2 0 0 2 2 3 3 3 3 5 4 3 3 4 5 4 3 3 3 3 5 5 6 6 6 6 6 6 6 6 6 7 8 8 8 9 9 9 10 10 11 11 12 13 13
4 5 3 3 4 2 1 3 2 3 5 3 2 3 3 7 6 6 4 3 2 1 2 2 3 4 4 4 5 6 7 7 6 6 7 7 7 7 7 8 8 9 10 10 11 11 13 13 13
5 4 2 3 4 4 2 2 3 4 4 3 4 4 6 7 7 6 4 3 1 1 1 0 1 1 3 3 5 6 6 6 6 6 6 7 7 7 7 8 9 10 11 11 12 12 12 11 11
4 4 1 1 3 4 3 2 2 5 2 3 5 7 7 7 6 5 4 3 2 2 0 0 0 1 2 2 3 4 5 6 6 6 6 6 7 7 8 8 8 9 10 10 10 11 10 9 9
4 1 2 2 2 3 3 3 2 3 3 4 7 9 8 7 6 5 5 3 2 2 1 0 1 1 1 2 3 3 4 4 5 5 5 5 5 5 5 6 6 7 7 7 8 7 8 9 9
4 2 2 3 4 3 4 3 2 1 1 5 8 8 8 7 5 4 3 3 2 2 1 1 1 2 2 2 2 3 3 4 4 5 5 5 4 3 4 4 6 6 6 6 6 6 6 7 7
2 3 3 3 3 2 3 1 2 1 4 7 8 8 7 7 6 3 3 3 3 3 2 1 2 3 3 2 2 2 3 4 5 5 5 5 4 4 4 4 4 5 6 6 6 6 5 5 6
4 5 5 3 1 1 4 2 1 3 6 7 7 7 6 5 5 5 5 5 5 4 3 3 3 3 4 3 3 3 4 5 5 5 5 5 5 5 4 4 4 4 6 7 7 7 6 5 5
4 4 2 3 0 2 4 3 4 4 7 7 6 6 5 5 5 5 5 5 5 4 4 3 4 4 4 4 4 4 4 5 5 5 6 6 6 5 5 4 3 4 6 6 4 4 5 5 5
4 1 1 4 1 2 3 5 4 4 7 7 7 7 6 6 5 5 5 6 5 5 5 4 4 5 4 4 4 4 5 5 5 5 5 6 6 5 5 4 3 5 5 4 4 4 4 4 4
3 2 2 3 3 2 3 5 5 4 7 8 7 7 7 7 8 6 6 5 5 5 5 5 5 4 4 3 3 3 4 4 5 5 5 5 5 5 5 5 4 5 4 4 4 4 4 4 3
4 3 3 4 3 2 5 7 7 5 6 7 8 8 8 9 6 5 5 5 5 5 5 5 5 4 4 2 2 2 1 1 2 4 5 5 4 4 5 4 4 4 4 3 4 4 4 3 2
3 2 3 4 2 2 4 6 6 5 7 8 9 10 10 8 5 5 5 5 6 7 6 6 6 5 4 3 2 2 2 1 1 2 4 5 4 4 4 4 3 3 3 4 4 3 3 2 3
3 4 4 3 2 2 2 6 5 4 3 4 6 7 8 10 9 7 6 6 6 7 8 7 7 6 5 4 3 3 3 3 2 2 2 3 4 4 4 4 3 3 3 3 2 3 3 2 2
3 4 4 3 1 3 1 4 6 5 4 4 6 6 8 8 8 8 8 7 8 8 7 7 7 6 5 5 5 5 3 2 1 0 0 2 4 4 4 4 3 3 2 3 2 2 2 3 2
3 1 2 1 2 1 1 1 7 3 5 7 7 8 8 8 9 9 9 9 8 7 7 6 6 5 5 5 6 5 3 2 1 1 2 2 2 3 3 3 3 3 2 2 2 3 3 2 2
3 5 5 5 4 1 3 3 6 3 5 6 6 6 6 6 7 7 7 6 6 6 6 6 7 6 5 6 5 6 6 4 4 2 2 1 1 1 2 3 3 3 2 2 2 2 3 2 3
5 5 4 4 3 4 2 2 6 6 5 4 5 5 5 5 6 6 7 7 7 8 7 7 7 6 6 6 6 6 6 6 5 4 3 2 1 0 0 2 2 2 2 3 3 3 3 2 3
2 6 6 4 4 4 2 4 6 4 4 3 3 2 2 4 5 6 7 7 8 9 8 8 8 7 7 7 6 5 5 4 3 4 3 3 2 2 1 2 2 2 3 3 3 2 2 2 3
4 3 5 5 1 2 4 5 6 2 4 4 3 3 1 2 4 6 6 6 6 8 8 9 9 7 7 7 6 5 5 5 4 4 3 2 2 2 2 3 3 2 3 3 3 2 2 3 2
4 6 5 4 3 3 5 4 4 5 4 4 3 2 2 1 1 3 4 5 5 5 6 7 8 8 7 7 6 5 5 5 5 4 4 3 3 2 3 3 3 2 2 3 3 2 2 4 2
3 3 4 3 4 4 3 6 4 5 4 4 5 4 2 2 2 2 3 5 5 4 4 6 6 6 6 6 6 5 4 4 4 4 4 4 3 3 4 4 3 3 3 3 3 3 3 3 3
3 5 6 4 3 4 3 6 4 3 3 3 4 4 2 2 2 2 2 3 3 4 4 5 6 6 6 6 6 6 5 4 4 4 4 4 4 4 4 4 4 3 3 3 3 3 3 3 2
Wind_Direction
357 33 68 57 56 55 52 3 20 55 56 48 62 73 85 73 75 115 281 3 107 38 27 57 80 79 79 77 77 76 72 75 75 76 77 78 78 77 76 76 75 74 73 71 68 66 66 67 70
4 44 53 58 76 72 32 1 55 60 121 121 68 63 67 59 60 103 94 189 93 67 55 73 83 79 76 74 74 76 76 75 74 74 75 76 75 75 75 75 74 74 73 71 69 68 66 64 66
37 47 73 66 76 112 120 74 96 83 84 81 73 58 70 70 86 142 197 146 87 63 65 74 82 78 74 72 72 72 74 74 72 71 72 72 72 71 72 75 74 72 71 70 70 69 67 65 67
63 42 55 66 65 39 137 136 120 101 66 54 88 71 55 24 113 150 136 117 99 59 60 70 75 74 72 72 70 69 70 69 69 68 68 69 70 70 70 70 71 70 67 66 66 66 66 67 70
58 69 62 57 36 6 16 60 82 83 71 62 85 90 50 3 79 112 118 118 112 64 42 55 69 73 70 71 70 67 66 66 66 64 61 61 63 67 70 71 70 67 64 62 62 63 65 68 73
51 62 78 77 36 10 18 54 86 85 93 87 87 93 63 40 93 117 118 114 104 75 35 34 49 56 57 60 63 65 67 67 64 64 59 58 59 65 67 69 71 65 62 61 61 62 66 69 72
91 81 94 108 85 33 59 74 93 103 96 105 116 100 87 95 134 124 106 91 74 51 40 27 32 34 40 45 52 61 65 67 64 63 59 58 59 64 66 68 71 67 64 61 62 63 66 69 70
112 95 79 86 113 81 54 84 82 100 103 97 105 128 163 188 147 108 92 78 61 44 35 23 21 21 23 26 38 47 55 58 61 61 62 63 60 57 59 62 66 64 64 62 62 64 68 69 70
84 76 107 168 159 170 124 93 61 65 92 73 69 135 153 136 121 104 88 69 60 52 25 14 6 4 17 23 29 32 38 41 46 50 57 61 53 50 46 53 64 64 64 63 64 68 70 67 66
78 105 180 193 170 154 119 107 127 87 75 70 63 70 109 122 126 132 137 146 164 228 270 344 338 357 28 30 30 28 36 40 39 40 48 55 54 53 51 47 56 61 62 62 64 69 69 65 63
95 137 157 112 146 131 113 90 106 120 129 183 163 150 138 133 137 151 164 171 196 216 279 18 100 21 46 32 31 33 38 44 42 41 51 60 55 52 51 49 44 48 55 58 62 64 64 66 67
93 84 132 136 112 105 127 122 105 151 208 186 161 151 147 149 163 173 178 182 181 176 206 205 129 107 69 58 42 45 48 45 42 43 57 68 58 52 51 52 46 51 58 63 63 67 67 66 65
77 64 62 99 83 96 102 106 131 184 84 115 127 139 155 166 180 189 182 174 162 170 202 191 130 125 108 86 61 60 52 50 52 55 60 75 77 66 61 56 55 58 66 72 71 69 72 70 64
94 82 58 68 73 79 107 68 95 191 130 126 139 160 176 182 184 175 174 181 182 183 190 155 130 134 119 107 90 70 61 59 60 59 61 75 85 84 79 69 61 59 68 76 79 77 77 69 65
79 66 33 17 49 98 96 16 257 175 141 146 163 176 187 200 191 194 199 195 191 188 171 153 148 129 120 114 98 76 66 70 62 56 63 75 80 83 88 79 64 63 77 79 79 73 74 71 65
55 54 20 305 98 138 121 257 260 164 156 171 185 192 197 212 212 213 204 194 188 172 159 159 147 130 119 105 93 78 68 70 65 63 68 71 74 83 89 85 68 77 84 82 77 71 70 64 62
37 60 279 298 249 150 163 242 255 174 175 188 197 203 206 217 229 226 209 195 185 174 161 149 136 134 126 107 90 79 67 63 59 63 66 70 75 81 88 85 81 87 85 76 85 67 75 75 68
207 205 248 261 264 163 216 253 262 201 193 203 208 212 213 218 227 222 207 193 178 169 158 149 140 134 124 102 84 67 58 47 49 51 55 68 77 87 87 82 79 86 81 70 76 80 65 71 72
160 181 247 263 255 192 239 259 261 220 207 215 221 221 222 225 230 215 195 176 163 160 157 159 156 154 138 123 119 104 78 35 33 39 47 62 77 90 88 83 76 80 88 92 95 92 80 62 57
171 217 264 290 300 201 262 275 272 223 218 220 219 223 222 224 218 207 189 177 176 177 174 172 174 169 165 156 148 132 124 96 58 34 47 50 65 87 99 96 92 86 92 88 88 95 96 60 41
220 210 227 246 341 17 345 316 298 282 251 241 228 224 220 214 209 202 191 190 185 187 186 185 184 174 170 153 119 91 68 50 35 23 24 24 51 74 90 96 101 100 100 107 98 101 112 112 42
246 238 208 194 105 301 42 299 298 293 290 267 249 229 222 216 205 200 194 190 193 196 189 185 181 173 167 157 148 142 146 159 197 194 37 26 47 67 85 100 103 102 97 105 107 104 102 117 104
211 64 114 132 149 340 351 224 294 315 296 283 261 236 225 213 201 200 200 194 193 189 184 182 173 172 167 163 161 155 151 157 131 92 91 62 41 56 78 96 101 97 96 100 92 97 97 106 125
128 69 53 50 76 313 254 188 292 273 261 284 270 245 225 211 201 200 196 180 183 180 178 171 172 177 170 166 166 168 163 155 138 131 128 103 48 38 56 90 96 99 99 99 99 102 103 101 105
81 86 30 1 6 263 248 193 254 267 260 254 268 254 225 198 189 188 183 181 186 183 180 175 174 180 176 172 178 183 177 170 170 171 176 170 151 127 33 88 93 94 103 104 100 95 96 106 107
154 140 158 200 233 281 312 235 253 276 288 276 283 275 198 182 182 189 190 186 186 187 183 180 183 186 180 181 189 189 182 177 179 177 176 183 190 195 157 122 109 103 104 105 101 91 95 98 100
140 167 162 138 176 277 283 288 299 302 339 343 356 23 37 199 186 189 185 182 186 189 189 185 183 185 186 189 186 184 185 183 184 183 179 186 192 174 145 133 121 110 105 109 108 96 92 96 88
129 142 108 128 169 255 287 276 263 293 296 312 325 314 287 264 180 185 186 189 192 191 189 180 182 188 186 183 188 189 189 187 181 172 179 185 187 166 153 146 130 117 110 109 109 102 93 93 78
97 103 112 125 159 169 259 273 234 238 265 279 281 275 258 229 202 198 197 190 181 164 166 177 183 183 181 184 186 181 182 179 172 179 192 190 181 171 168 161 149 148 142 129 121 116 109 103 83
188 173 152 163 218 185 198 264 279 265 275 280 293 297 283 242 211 190 176 159 159 168 176 180 184 185 188 183 177 179 175 168 172 188 194 186 181 177 171 160 155 158 150 143 138 137 124 122 115
Height
1506 1505 1506 1507 1511 1522 1528 1524 1520 1520 1521 1523 1522 1523 1525 1528 1531 1536 1533 1530 1530 1529 1528 1527 1528 1528 1528 1528 1528 1528 1528 1527 1527 1527 1527 1526 1526 1526 1526 1526 1526 1526 1526 1526 1527 1527 1527 1527 1527
1506 1506 1508 1508 1519 1533 1532 1524 1522 1522 1523 1523 1524 1525 1526 1529 1530 1531 1531 1531 1531 1530 1529 1529 1530 1530 1530 1529 1529 1529 1529 1529 1529 1529 1529 1528 1528 1528 1528 1528 1528 1528 1528 1528 1528 1528 1528 1528 1528
1507 1508 1509 1513 1525 1532 1530 1524 1523 1523 1524 1524 1526 1527 1529 1531 1532 1532 1533 1533 1533 1533 1532 1532 1532 1532 1532 1532 1532 1531 1531 1531 1531 1531 1530 1530 1530 1530 1530 1530 1530 1530 1530 1530 1530 1530 1530 1530 1529
1509 1510 1512 1520 1528 1527 1525 1524 1523 1524 1525 1525 1527 1530 1531 1533 1533 1534 1534 1534 1535 1535 1535 1534 1534 1534 1534 1534 1534 1534 1533 1533 1533 1533 1533 1532 1532 1532 1532 1531 1532 1532 1532 1532 1532 1532 1531 1531 1531
1510 1511 1519 1529 1529 1526 1524 1524 1524 1525 1526 1527 1528 1531 1533 1535 1534 1535 1536 1536 1536 1537 1537 1536 1536 1536 1536 1536 1536 1536 1536 1535 1535 1535 1535 1534 1534 1534 1534 1534 1534 1534 1534 1534 1534 1533 1533 1533 1532
1512 1514 1529 1535 1531 1527 1525 1525 1525 1526 1528 1529 1530 1532 1535 1536 1536 1537 1537 1538 1538 1538 1538 1539 1539 1539 1539 1539 1539 1538 1538 1538 1537 1537 1537 1537 1536 1536 1535 1536 1536 1536 1536 1536 1536 1535 1535 1534 1534
1514 1520 1530 1532 1532 1529 1527 1526 1527 1528 1529 1530 1531 1533 1535 1537 1537 1538 1539 1539 1540 1540 1540 1541 1541 1541 1540 1540 1541 1540 1540 1540 1540 1539 1539 1538 1538 1538 1538 1538 1538 1538 1538 1538 1538 1537 1537 1537 1536
1515 1521 1530 1533 1533 1531 1528 1528 1529 1529 1530 1532 1532 1533 1535 1537 1538 1539 1540 1541 1541 1542 1542 1542 1542 1542 1542 1542 1542 1542 1542 1542 1542 1542 1541 1541 1540 1540 1540 1540 1540 1540 1540 1540 1540 1539 1539 1539 1538
1516 1526 1534 1532 1531 1530 1528 1528 1530 1530 1531 1532 1533 1534 1536 1537 1539 1540 1541 1542 1542 1543 1544 1544 1544 1544 1544 1544 1544 1544 1544 1544 1544 1544 1543 1543 1542 1542 1542 1542 1542 1542 1542 1542 1542 1541 1541 1541 1540
1518 1530 1529 1526 1526 1527 1528 1529 1530 1531 1532 1533 1534 1535 1536 1538 1539 1540 1541 1542 1543 1544 1545 1545 1545 1546 1546 1546 1546 1546 1546 1545 1545 1545 1545 1545 1544 1544 1544 1544 1544 1544 1544 1544 1544 1543 1543 1543 1542
1519 1525 1525 1525 1525 1527 1528 1530 1530 1532 1534 1534 1534 1535 1537 1538 1540 1541 1542 1543 1544 1545 1546 1546 1547 1547 1547 1547 1547 1547 1547 1547 1547 1547 1547 1547 1547 1546 1546 1546 1546 1546 1546 1546 1546 1545 1545 1544 1544
1522 1523 1524 1525 1526 1527 1529 1530 1531 1532 1533 1533 1534 1535 1537 1539 1540 1541 1543 1544 1545 1546 1546 1547 1548 1548 1548 1548 1548 1548 1548 1548 1548 1548 1548 1548 1548 1548 1548 1548 1548 1548 1548 1548 1548 1547 1547 1546 1546
1523 1525 1526 1526 1527 1528 1529 1531 1532 1532 1533 1534 1535 1536 1538 1539 1541 1542 1544 1545 1546 1546 1547 1548 1548 1549 1549 1549 1549 1549 1549 1549 1549 1549 1549 1550 1550 1550 1550 1550 1549 1549 1550 1550 1549 1549 1548 1548 1548
1525 1526 1527 1528 1528 1529 1530 1531 1532 1533 1533 1534 1536 1537 1538 1539 1541 1542 1544 1545 1546 1547 1548 1548 1549 1549 1550 1550 1550 1550 1550 1550 1550 1550 1551 1551 1551 1551 1551 1551 1551 1551 1551 1551 1551 1551 1550 1550 1549
1526 1528 1530 1529 1529 1530 1531 1534 1533 1532 1534 1535 1536 1537 1539 1540 1541 1542 1544 1545 1546 1547 1548 1549 1549 1550 1550 1551 1551 1551 1551 1551 1551 1551 1552 1552 1552 1552 1552 1552 1552 1552 1552 1552 1552 1552 1552 1551 1551
1528 1534 1538 1532 1530 1531 1535 1540 1532 1532 1533 1534 1536 1537 1538 1540 1541 1542 1544 1545 1546 1547 1548 1549 1550 1550 1551 1551 1552 1552 1552 1552 1552 1552 1552 1552 1552 1553 1553 1553 1553 1553 1553 1553 1553 1553 1553 1553 1552
1537 1542 1541 1536 1530 1531 1534 1536 1531 1532 1533 1534 1535 1536 1537 1539 1540 1541 1543 1544 1546 1547 1548 1549 1550 1551 1551 1552 1552 1552 1552 1553 1553 1553 1553 1553 1553 1553 1554 1554 1554 1554 1554 1554 1554 1554 1554 1554 1554
1542 1542 1540 1538 1532 1532 1534 1534 1530 1531 1532 1532 1533 1535 1536 1537 1538 1540 1542 1544 1545 1547 1548 1549 1550 1551 1552 1552 1552 1553 1553 1553 1553 1553 1553 1553 1554 1554 1554 1554 1555 1555 1555 1555 1555 1555 1555 1555 1555
1534 1538 1540 1536 1530 1532 1534 1533 1530 1529 1530 1531 1532 1533 1533 1535 1537 1539 1541 1542 1544 1546 1547 1549 1550 1550 1551 1552 1552 1553 1553 1553 1553 1554 1554 1554 1554 1554 1554 1555 1555 1555 1555 1556 1556 1556 1556 1556 1556
1533 1538 1538 1534 1529 1531 1534 1532 1528 1527 1528 1528 1528 1530 1531 1533 1535 1537 1539 1541 1542 1544 1546 1547 1549 1550 1551 1552 1552 1553 1553 1553 1554 1554 1554 1554 1554 1554 1555 1555 1555 1555 1556 1556 1556 1557 1557 1557 1557
1534 1536 1536 1536 1532 1532 1534 1535 1530 1526 1526 1526 1526 1527 1528 1530 1532 1534 1537 1539 1541 1543 1545 1546 1548 1549 1550 1551 1552 1553 1553 1553 1554 1554 1554 1554 1554 1555 1555 1555 1555 1556 1556 1556 1557 1557 1557 1557 1557
1536 1529 1530 1532 1539 1544 1540 1550 1534 1529 1526 1524 1523 1524 1525 1527 1529 1532 1534 1536 1539 1541 1543 1545 1547 1549 1550 1551 1552 1552 1553 1553 1553 1554 1554 1554 1555 1555 1555 1556 1556 1556 1556 1557 1557 1557 1557 1557 1557
1529 1527 1529 1533 1538 1545 1543 1549 1541 1530 1528 1523 1521 1520 1521 1523 1526 1529 1531 1534 1537 1540 1542 1544 1546 1548 1549 1550 1551 1552 1552 1553 1553 1554 1554 1555 1555 1555 1556 1556 1556 1556 1557 1557 1557 1557 1557 1557 1557
1526 1530 1534 1540 1545 1554 1546 1550 1546 1534 1527 1522 1518 1517 1518 1520 1523 1526 1529 1532 1535 1538 1540 1542 1544 1546 1548 1550 1551 1552 1552 1553 1553 1554 1554 1555 1555 1556 1556 1556 1556 1556 1557 1557 1557 1557 1557 1557 1557
1529 1540 1554 1556 1560 1557 1544 1546 1542 1525 1521 1519 1517 1515 1516 1518 1520 1523 1526 1529 1532 1535 1538 1540 1542 1544 1546 1548 1550 1551 1552 1552 1553 1554 1554 1555 1555 1556 1556 1556 1556 1557 1557 1557 1557 1557 1557 1557 1557
1531 1538 1554 1561 1562 1556 1545 1546 1533 1521 1519 1517 1516 1515 1515 1516 1518 1521 1524 1527 1529 1532 1535 1538 1540 1543 1545 1547 1548 1550 1551 1552 1553 1553 1554 1555 1555 1555 1556 1556 1556 1556 1557 1557 1557 1557 1557 1557 1557
1532 1537 1538 1550 1551 1556 1550 1541 1528 1519 1518 1516 1515 1514 1514 1516 1517 1520 1522 1525 1528 1530 1533 1536 1538 1541 1543 1545 1547 1549 1550 1551 1552 1553 1554 1554 1555 1555 1555 1556 1556 1556 1556 1557 1557 1557 1557 1557 1557
1527 1533 1543 1550 1556 1560 1551 1544 1537 1523 1520 1517 1516 1515 1515 1516 1517 1519 1521 1524 1526 1529 1531 1534 1536 1539 1541 1543 1545 1547 1549 1550 1551 1552 1553 1553 1554 1554 1555 1555 1555 1555 1556 1556 1556 1556 1556 1556 1556
1532 1535 1540 1548 1550 1557 1557 1547 1524 1521 1518 1518 1516 1515 1514 1515 1517 1519 1520 1522 1525 1527 1529 1532 1535 1537 1539 1541 1543 1545 1547 1548 1550 1551 1551 1552 1553 1553 1554 1554 1554 1555 1555 1555 1555 1555 1556 1556 1556
1525 1529 1537 1546 1549 1551 1553 1545 1518 1518 1517 1516 1515 1514 1514 1515 1516 1518 1520 1521 1523 1525 1527 1529 1532 1534 1537 1539 1541 1543 1545 1546 1548 1549 1550 1551 1552 1552 1552 1553 1553 1553 1554 1554 1554 1555 1555 1555 1555